CYGNUS OA-9

Last updated on Tue Jul 31 2018 00:15:07 GMT+0000 (Coordinated Universal Time)

1 43474U 18046A 18211.47198009 .00008695 00000-0 12249-3 0 9991 2 43474 51.6430 165.6485 0021068 270.4372 190.6361 15.57287845 10874
UTC large
Height (km)
Speed (km/s)
/
Latitude / Longitude
Inclination (degrees)
Orbital Period (minutes)
Azimuth
Elevation
Range (km)
Doppler Factor

Next 0 passes for location: London (51.5072 / 0.1276)

Sorry there are no passes over London.